When you browse on this site, cookies collect data to enhance your experience and personalize the content and advertising you see.
Visit our Privacy Policy to learn more. By continuing to use the site, you agree to this use of cookies and data.
  • In Schweiz
  • Länderverzeichnis
  • Für 7 Tage
  • Wassertemperatur
  • Satellitenkarten
  • Wetterkarte
  • Widgets
  • user-avatar
    Anmelden

    Stündliche Wetter Lihachi

    Heute, 25 Juni, Dienstag

    Zeit Temperatur Niederschläge Wind Luftdruck Luftfeuchtigkeit
    00:00 +17°C° 0 mm 2 m/S 755 mmHg 85%
    01:00 +16°C° 0 mm 2 m/S 755 mmHg 86%
    02:00 +16°C° 0 mm 2 m/S 756 mmHg 89%
    03:00 +16°C° 0 mm 2 m/S 756 mmHg 89%
    04:00 +16°C° 0 mm 2 m/S 756 mmHg 89%
    05:00 +16°C° 0 mm 2 m/S 756 mmHg 89%
    06:00 +18°C° 0 mm 2 m/S 756 mmHg 84%
    07:00 +20°C° 0 mm 2 m/S 756 mmHg 78%
    08:00 +21°C° 0 mm 2 m/S 756 mmHg 73%
    09:00 +24°C° 0 mm 2 m/S 756 mmHg 66%
    10:00 +25°C° 0 mm 2 m/S 757 mmHg 60%
    11:00 +26°C° 0 mm 2 m/S 757 mmHg 54%
    12:00 +26°C° 0 mm 3 m/S 757 mmHg 53%
    13:00 +27°C° 0 mm 3 m/S 757 mmHg 52%
    14:00 +27°C° 0 mm 3 m/S 757 mmHg 50%
    15:00 +27°C° 0 mm 2 m/S 756 mmHg 52%
    16:00 +27°C° 0 mm 2 m/S 756 mmHg 54%
    17:00 +27°C° 0 mm 2 m/S 755 mmHg 55%
    18:00 +25°C° 0 mm 2 m/S 755 mmHg 62%
    19:00 +24°C° 0 mm 1 m/S 755 mmHg 68%
    20:00 +23°C° 0 mm 1 m/S 756 mmHg 75%
    21:00 +21°C° 0 mm 1 m/S 755 mmHg 78%
    22:00 +20°C° 0 mm 1 m/S 755 mmHg 81%
    23:00 +19°C° 0 mm 1 m/S 755 mmHg 85%

    Morgen, 26 Juni, Mittwoch

    Zeit Temperatur Niederschläge Wind Luftdruck Luftfeuchtigkeit
    00:00 +17°C° 0 mm 2 m/S 755 mmHg 85%
    01:00 +17°C° 0 mm 2 m/S 755 mmHg 86%
    02:00 +17°C° 0 mm 2 m/S 755 mmHg 86%
    03:00 +17°C° 0 mm 2 m/S 755 mmHg 87%
    04:00 +17°C° 0 mm 2 m/S 754 mmHg 88%
    05:00 +16°C° 0 mm 2 m/S 754 mmHg 89%
    06:00 +18°C° 0 mm 2 m/S 754 mmHg 85%
    07:00 +20°C° 0 mm 2 m/S 753 mmHg 80%
    08:00 +21°C° 0 mm 2 m/S 753 mmHg 75%
    09:00 +24°C° 0 mm 3 m/S 753 mmHg 72%
    10:00 +25°C° 0 mm 3 m/S 753 mmHg 68%
    11:00 +27°C° 0 mm 4 m/S 752 mmHg 65%
    12:00 +28°C° 0 mm 4 m/S 752 mmHg 63%
    13:00 +29°C° 0 mm 4 m/S 751 mmHg 61%
    14:00 +30°C° 0 mm 4 m/S 751 mmHg 59%
    15:00 +30°C° 0 mm 4 m/S 750 mmHg 60%
    16:00 +30°C° 0 mm 4 m/S 749 mmHg 61%
    17:00 +30°C° 0 mm 4 m/S 749 mmHg 62%
    18:00 +29°C° 0 mm 4 m/S 748 mmHg 67%
    19:00 +28°C° 0 mm 4 m/S 747 mmHg 72%
    20:00 +27°C° 0 mm 3 m/S 747 mmHg 78%
    21:00 +26°C° 0 mm 3 m/S 746 mmHg 80%
    22:00 +25°C° 0 mm 3 m/S 746 mmHg 83%
    23:00 +24°C° 0 mm 3 m/S 745 mmHg 85%

    übermorgen, 27 Juni, Donnerstag

    Zeit Temperatur Niederschläge Wind Luftdruck Luftfeuchtigkeit
    00:00 +23°C° 0.7 mm 4 m/S 745 mmHg 88%
    01:00 +22°C° 0.7 mm 4 m/S 744 mmHg 90%
    02:00 +22°C° 0.7 mm 5 m/S 744 mmHg 92%
    03:00 +21°C° 0.1 mm 5 m/S 744 mmHg 93%
    04:00 +19°C° 0.1 mm 6 m/S 743 mmHg 93%
    05:00 +17°C° 0.1 mm 6 m/S 743 mmHg 93%
    06:00 +17°C° 0 mm 6 m/S 743 mmHg 92%
    07:00 +19°C° 0 mm 6 m/S 743 mmHg 90%
    08:00 +19°C° 0 mm 6 m/S 743 mmHg 88%
    09:00 +20°C° 0.1 mm 6 m/S 744 mmHg 80%
    10:00 +21°C° 0.1 mm 7 m/S 744 mmHg 73%
    11:00 +22°C° 0.1 mm 7 m/S 744 mmHg 66%
    12:00 +22°C° 0.1 mm 7 m/S 744 mmHg 65%
    13:00 +23°C° 0.1 mm 7 m/S 744 mmHg 63%
    14:00 +23°C° 0.1 mm 7 m/S 744 mmHg 61%
    15:00 +23°C° 0.2 mm 7 m/S 744 mmHg 61%
    16:00 +22°C° 0.2 mm 7 m/S 744 mmHg 61%
    17:00 +22°C° 0.2 mm 6 m/S 744 mmHg 60%
    18:00 +20°C° 0 mm 6 m/S 744 mmHg 63%
    19:00 +19°C° 0 mm 6 m/S 744 mmHg 65%
    20:00 +16°C° 0 mm 5 m/S 744 mmHg 68%
    21:00 +15°C° 0 mm 5 m/S 744 mmHg 70%
    22:00 +14°C° 0 mm 5 m/S 744 mmHg 71%
    23:00 +13°C° 0 mm 5 m/S 745 mmHg 73%

    28 Juni, Freitag

    Zeit Temperatur Niederschläge Wind Luftdruck Luftfeuchtigkeit
    00:00 +12°C° 0 mm 5 m/S 745 mmHg 73%
    01:00 +12°C° 0 mm 5 m/S 745 mmHg 74%
    02:00 +10°C° 0 mm 5 m/S 745 mmHg 75%
    03:00 +10°C° 0 mm 5 m/S 745 mmHg 77%
    04:00 +10°C° 0 mm 5 m/S 745 mmHg 78%
    05:00 +10°C° 0 mm 5 m/S 745 mmHg 79%
    06:00 +11°C° 0 mm 6 m/S 745 mmHg 73%
    07:00 +14°C° 0 mm 7 m/S 745 mmHg 66%
    08:00 +15°C° 0 mm 8 m/S 745 mmHg 59%
    09:00 +16°C° 0 mm 8 m/S 745 mmHg 57%
    10:00 +17°C° 0 mm 8 m/S 745 mmHg 55%
    11:00 +18°C° 0 mm 8 m/S 745 mmHg 53%
    12:00 +18°C° 0 mm 8 m/S 745 mmHg 52%
    13:00 +20°C° 0 mm 8 m/S 745 mmHg 51%
    14:00 +21°C° 0 mm 8 m/S 745 mmHg 49%
    15:00 +20°C° 0 mm 7 m/S 745 mmHg 52%
    16:00 +20°C° 0 mm 7 m/S 745 mmHg 55%
    17:00 +19°C° 0 mm 6 m/S 745 mmHg 57%
    18:00 +17°C° 0 mm 6 m/S 745 mmHg 63%
    19:00 +16°C° 0 mm 5 m/S 745 mmHg 68%
    20:00 +14°C° 0 mm 5 m/S 745 mmHg 73%
    21:00 +14°C° 0 mm 5 m/S 745 mmHg 76%
    22:00 +13°C° 0 mm 5 m/S 746 mmHg 78%
    23:00 +12°C° 0 mm 5 m/S 746 mmHg 81%

    29 Juni, Samstag

    Zeit Temperatur Niederschläge Wind Luftdruck Luftfeuchtigkeit
    00:00 +10°C° 0 mm 5 m/S 746 mmHg 81%
    01:00 +9°C° 0 mm 5 m/S 746 mmHg 81%
    02:00 +9°C° 0 mm 5 m/S 746 mmHg 81%
    03:00 +8°C° 0 mm 5 m/S 746 mmHg 80%
    04:00 +8°C° 0 mm 5 m/S 747 mmHg 78%
    05:00 +7°C° 0 mm 5 m/S 747 mmHg 77%
    06:00 +9°C° 0 mm 6 m/S 747 mmHg 71%
    07:00 +11°C° 0 mm 6 m/S 747 mmHg 66%
    08:00 +12°C° 0 mm 7 m/S 747 mmHg 61%
    09:00 +15°C° 0 mm 7 m/S 747 mmHg 59%
    10:00 +16°C° 0 mm 7 m/S 747 mmHg 56%
    11:00 +17°C° 0 mm 7 m/S 747 mmHg 54%
    12:00 +18°C° 0 mm 7 m/S 747 mmHg 53%
    13:00 +19°C° 0 mm 6 m/S 747 mmHg 52%
    14:00 +20°C° 0 mm 6 m/S 747 mmHg 50%
    15:00 +20°C° 0.1 mm 5 m/S 747 mmHg 52%
    16:00 +20°C° 0.1 mm 5 m/S 747 mmHg 54%
    17:00 +20°C° 0.1 mm 5 m/S 746 mmHg 55%
    18:00 +19°C° 0 mm 4 m/S 746 mmHg 62%
    19:00 +18°C° 0 mm 3 m/S 746 mmHg 68%
    20:00 +17°C° 0 mm 3 m/S 746 mmHg 74%
    21:00 +16°C° 0 mm 3 m/S 747 mmHg 77%
    22:00 +13°C° 0 mm 3 m/S 747 mmHg 80%
    23:00 +12°C° 0 mm 3 m/S 747 mmHg 83%

    30 Juni, Sonntag

    Zeit Temperatur Niederschläge Wind Luftdruck Luftfeuchtigkeit
    00:00 +12°C° 0 mm 3 m/S 747 mmHg 83%
    01:00 +12°C° 0 mm 3 m/S 747 mmHg 82%
    02:00 +12°C° 0 mm 3 m/S 748 mmHg 82%
    03:00 +12°C° 0 mm 3 m/S 748 mmHg 80%
    04:00 +13°C° 0 mm 3 m/S 747 mmHg 78%
    05:00 +14°C° 0 mm 2 m/S 747 mmHg 76%
    06:00 +15°C° 0 mm 2 m/S 748 mmHg 74%
    07:00 +16°C° 0 mm 2 m/S 748 mmHg 72%
    08:00 +17°C° 0 mm 2 m/S 748 mmHg 69%
    09:00 +19°C° 0 mm 3 m/S 748 mmHg 64%
    10:00 +21°C° 0 mm 3 m/S 748 mmHg 59%
    11:00 +24°C° 0 mm 3 m/S 748 mmHg 54%
    12:00 +25°C° 0 mm 4 m/S 748 mmHg 53%
    13:00 +26°C° 0 mm 4 m/S 748 mmHg 53%
    14:00 +27°C° 0 mm 4 m/S 747 mmHg 52%
    15:00 +27°C° 0 mm 4 m/S 747 mmHg 53%
    16:00 +27°C° 0 mm 4 m/S 747 mmHg 55%
    17:00 +27°C° 0 mm 3 m/S 746 mmHg 56%
    18:00 +26°C° 0 mm 3 m/S 746 mmHg 62%
    19:00 +24°C° 0 mm 3 m/S 746 mmHg 67%
    20:00 +23°C° 0 mm 2 m/S 746 mmHg 73%
    21:00 +21°C° 0 mm 3 m/S 746 mmHg 74%
    22:00 +20°C° 0 mm 3 m/S 745 mmHg 75%
    23:00 +19°C° 0 mm 3 m/S 745 mmHg 76%
    Mehr zeigen